Monroe, NC

7:46 AM EDT on September 26, 2017 (GMT -0400)
Monroe

Weather History for KEQY - August, 2014

Change the Weather History Date:

Tuesday, August 12, 2014

  Actual Average (KCLT) Record (KCLT)
Temperature  
Mean Temperature 80 °F -  
Max Temperature 89 °F 85 °F 100 °F (1925)
Min Temperature 72 °F 68 °F 57 °F (1890)
Cooling Degree Days 16    
Growing Degree Days 30 (Base 50)    
Moisture  
Dew Point 72 °F    
Average Humidity 85    
Maximum Humidity 96    
Minimum Humidity 61    
Precipitation  
Precipitation 0.51 in - - ()
Sea Level Pressure  
Sea Level Pressure 29.87 in    
Wind  
Wind Speed 3 mph (SSW)    
Max Wind Speed 10 mph    
Max Gust Speed 28 mph    
Visibility 9 miles    
Events Rain , Thunderstorm    
Averages and records for this station are not official NWS values.
T = Trace of Precipitation, MM = Missing Value Source: NWS Daily Summary

Daily Weather History Graph

Daily Weather History Graph

Search for Another Location

Airport or City:

Trip Planner

Search our weather history database for the weather conditions in past years. The results will help you decide how hot, cold, wet, or windy it might be!

Date:

Astronomy

Aug. 12, 2014 Rise Set
Actual Time 6:40 AM EDT 8:14 PM EDT
Civil Twilight 6:13 AM EDT 8:41 PM EDT
Nautical Twilight 5:40 AM EDT 9:13 PM EDT
Astronomical Twilight 5:06 AM EDT 9:47 PM EDT
Moon 9:29 PM EDT (8/12) 8:48 AM EDT (8/12)
Length of Visible Light 14h 28m
Length of Day
13h 34m
Waning Gibbous, 95% of the Moon is Illuminated
Aug 12
Waning Gibbous
Aug 17
Last Quarter
Aug 25
New
Sep 2
First Quarter
Sep 8
Full

Hourly Weather History & Observations

Time (EDT) Temp. Heat Index Dew Point Humidity Pressure Visibility Wind Dir Wind Speed Gust Speed Precip Events Conditions
12:49 AM 75.2 °F - 71.6 °F 89% 29.94 in 10.0 mi Calm Calm - N/A   Overcast
12:53 AM 75.0 °F - 72.0 °F 90% 29.94 in 10.0 mi Calm Calm - N/A   Overcast
1:11 AM 75.0 °F - 72.0 °F 90% 29.94 in 10.0 mi Calm Calm - N/A   Overcast
1:53 AM 75.0 °F - 72.0 °F 90% 29.94 in 10.0 mi Variable 3.5 mph - N/A   Overcast
2:53 AM 75.0 °F - 72.0 °F 90% 29.92 in 10.0 mi Variable 3.5 mph - N/A   Overcast
3:53 AM 75.0 °F - 72.0 °F 90% 29.90 in 10.0 mi Variable 3.5 mph - N/A   Overcast
4:37 AM 73.9 °F - 72.0 °F 93% 29.90 in 8.0 mi Calm Calm - N/A   Overcast
5:00 AM 75.0 °F - 72.0 °F 90% 29.90 in 10.0 mi Variable 3.5 mph - N/A   Overcast
5:09 AM 75.0 °F - 72.0 °F 90% 29.91 in 10.0 mi Calm Calm - N/A   Overcast
5:53 AM 73.9 °F - 72.0 °F 93% 29.90 in 10.0 mi Calm Calm - N/A   Overcast
6:26 AM 73.9 °F - 72.0 °F 93% 29.91 in 8.0 mi Calm Calm - N/A   Overcast
6:53 AM 73.0 °F - 72.0 °F 96% 29.90 in 6.0 mi Calm Calm - N/A   Overcast
7:11 AM 73.0 °F - 72.0 °F 96% 29.90 in 4.0 mi Calm Calm - N/A   Overcast
8:53 AM 75.9 °F - 72.0 °F 87% 29.90 in 10.0 mi SW 6.9 mph - N/A   Overcast
9:35 AM 77.0 °F - 72.0 °F 84% 29.90 in 10.0 mi SSW 4.6 mph - N/A   Scattered Clouds
9:53 AM 79.0 °F - 73.0 °F 82% 29.90 in 10.0 mi SW 6.9 mph - N/A   Scattered Clouds
10:11 AM 79.0 °F - 73.0 °F 82% 29.91 in 10.0 mi SW 9.2 mph - N/A   Mostly Cloudy
10:19 AM 79.0 °F - 73.0 °F 82% 29.91 in 10.0 mi SW 9.2 mph - N/A   Mostly Cloudy
10:53 AM 80.1 °F 84.2 °F 73.0 °F 79% 29.90 in 10.0 mi WSW 4.6 mph - N/A   Overcast
11:10 AM 82.0 °F 87.9 °F 73.9 °F 76% 29.91 in 10.0 mi SW 6.9 mph - N/A   Mostly Cloudy
11:53 AM 84.0 °F 90.2 °F 73.0 °F 69% 29.89 in 10.0 mi SSW 6.9 mph - N/A   Mostly Cloudy
1:53 PM 88.0 °F 95.6 °F 73.0 °F 61% 29.84 in 10.0 mi SW 10.4 mph - N/A   Scattered Clouds
2:53 PM 88.0 °F 95.6 °F 73.0 °F 61% 29.82 in 10.0 mi SW 9.2 mph - N/A   Mostly Cloudy
3:44 PM 77.0 °F - 73.9 °F 90% 29.82 in 9.0 mi SSE 4.6 mph - 0.04 in Thunderstorm Scattered Clouds
3:53 PM 78.1 °F - 73.9 °F 87% 29.81 in 9.0 mi SSE 4.6 mph - 0.04 in Thunderstorm Partly Cloudy
4:22 PM 81.0 °F 87.3 °F 75.9 °F 85% 29.81 in 10.0 mi South 3.5 mph - 0.00 in Rain Light Rain
4:53 PM 86.0 °F 96.9 °F 77.0 °F 74% 29.79 in 10.0 mi South 8.1 mph - 0.00 in   Clear
5:25 PM 82.9 °F 88.0 °F 72.0 °F 69% 29.82 in 10.0 mi Variable 5.8 mph - N/A Thunderstorm Clear
5:40 PM 82.0 °F 87.4 °F 73.0 °F 74% 29.79 in 10.0 mi Variable 4.6 mph - N/A   Partly Cloudy
5:53 PM 82.9 °F 88.8 °F 73.0 °F 72% 29.80 in 10.0 mi WNW 8.1 mph - N/A Thunderstorm Thunderstorm
6:10 PM 75.0 °F - 69.1 °F 82% 29.81 in 0.8 mi SW 5.8 mph 27.6 mph 0.37 in Rain , Thunderstorm Heavy Thunderstorms and Rain
6:17 PM 75.0 °F - 72.0 °F 90% 29.82 in 3.0 mi South 3.5 mph - 0.37 in Rain Light Rain
6:31 PM 75.9 °F - 72.0 °F 87% 29.83 in 10.0 mi SSE 6.9 mph - 0.37 in Thunderstorm Thunderstorm
6:53 PM 75.9 °F - 72.0 °F 87% 29.83 in 10.0 mi Calm Calm - 0.37 in Thunderstorm Mostly Cloudy
7:02 PM 75.9 °F - 71.1 °F 85% 29.83 in 10.0 mi Variable 3.5 mph - N/A Thunderstorm Scattered Clouds
7:27 PM 73.9 °F - 70.0 °F 87% 29.83 in 10.0 mi SSW 6.9 mph - N/A   Clear
7:51 PM 73.4 °F - 69.8 °F 88% 29.86 in 10.0 mi SSW 6.9 mph - N/A Thunderstorm Partly Cloudy
7:53 PM 73.9 °F - 70.0 °F 87% 29.85 in 10.0 mi SSW 6.9 mph - 0.00 in Rain , Thunderstorm Light Rain
8:22 PM 73.0 °F - 71.1 °F 93% 29.87 in 2.5 mi Variable 4.6 mph - 0.10 in Rain Rain
8:26 PM 73.0 °F - 71.1 °F 93% 29.86 in 4.0 mi Variable 3.5 mph - 0.10 in Rain , Thunderstorm Light Thunderstorms and Rain
8:53 PM 73.0 °F - 71.1 °F 93% 29.85 in 10.0 mi SSW 9.2 mph - 0.10 in Rain Light Rain
9:53 PM 73.0 °F - 71.1 °F 93% 29.84 in 10.0 mi SSW 6.9 mph - 0.00 in   Scattered Clouds
10:53 PM 73.0 °F - 70.0 °F 90% 29.85 in 10.0 mi WSW 6.9 mph - N/A   Clear
11:53 PM 72.0 °F - 70.0 °F 93% 29.84 in 10.0 mi WSW 5.8 mph - N/A   Clear